DEPPU VNLK-VNPL

Flight info

Callsign DEPPU
Flight time 0h 4m
Altitude 14500
Route VFR
Aircraft B36T/L-S/S

Departure

Time 2026-05-07 11:16
Airport Tenzing-Hillary Airport (VNLK)

Arrival

Time 2026-05-07 11:21
Airport Phaplu Airport (VNPL)
Time Latitude Longitude Altitude Speed Heading
2026-05-07 11:12 27.68745 86.73200 9452 ft 0 kts 245°
2026-05-07 11:14 27.68745 86.73192 9447 ft 4 kts 284°
2026-05-07 11:14 27.68782 86.73168 9449 ft 5 kts 53°
2026-05-07 11:15 27.68795 86.73176 9453 ft 5 kts 260°
2026-05-07 11:15 27.68792 86.73170 9449 ft 0 kts 240°
2026-05-07 11:15 27.68791 86.73168 9449 ft 4 kts 239°
2026-05-07 11:15 27.68650 86.72905 9330 ft 89 kts 239°
2026-05-07 11:16 27.68247 86.72132 9483 ft 126 kts 238°
2026-05-07 11:16 27.67637 86.71307 9808 ft 143 kts 226°
2026-05-07 11:16 27.66949 86.70479 10187 ft 151 kts 224°
2026-05-07 11:16 27.66090 86.69745 10520 ft 160 kts 212°
2026-05-07 11:17 27.65177 86.68947 10734 ft 172 kts 223°
2026-05-07 11:17 27.64288 86.68025 11014 ft 178 kts 222°
2026-05-07 11:17 27.63415 86.67043 11303 ft 178 kts 227°
2026-05-07 11:17 27.62689 86.65924 11645 ft 178 kts 239°
2026-05-07 11:18 27.62110 86.64662 11884 ft 183 kts 237°
2026-05-07 11:18 27.61273 86.63553 11923 ft 191 kts 221°
2026-05-07 11:18 27.60262 86.62592 11620 ft 189 kts 219°
2026-05-07 11:18 27.59220 86.61665 11239 ft 191 kts 218°
2026-05-07 11:19 27.58188 86.60742 10938 ft 188 kts 218°
2026-05-07 11:19 27.57138 86.59881 10614 ft 188 kts 209°
2026-05-07 11:19 27.55962 86.59366 10228 ft 168 kts 194°
2026-05-07 11:19 27.54905 86.59096 9421 ft 149 kts 190°
2026-05-07 11:20 27.53874 86.59125 8666 ft 141 kts 173°
2026-05-07 11:20 27.53019 86.59057 8348 ft 114 kts 196°
2026-05-07 11:20 27.52306 86.58751 8061 ft 105 kts 202°
2026-05-07 11:20 27.51706 86.58471 8073 ft 69 kts 202°
2026-05-07 11:21 27.51515 86.58392 8097 ft 3 kts 213°
2026-05-07 11:21 27.51518 86.58393 8097 ft 0 kts 219°
2026-05-07 11:21 27.51521 86.58397 8096 ft 3 kts 228°
2026-05-07 11:21 27.51547 86.58393 8094 ft 14 kts 19°
2026-05-07 11:22 27.51631 86.58431 8082 ft 11 kts 22°
2026-05-07 11:22 27.51713 86.58443 8074 ft 9 kts 336°
2026-05-07 11:22 27.51742 86.58426 8075 ft 3 kts 202°
2026-05-07 11:22 27.51740 86.58426 8075 ft 0 kts 200°